TimeCDT,TemperatureF,Dew PointF,Humidity,Sea Level PressureIn,VisibilityMPH,Wind Direction,Wind SpeedMPH,Gust SpeedMPH,PrecipitationIn,Events,Conditions,WindDirDegrees,DateUTC
12:15 AM,79.5,66.9,65,29.94,10.0,SE,12.7,-,N/A,,Clear,130,2013-07-13 05:15:00
12:35 AM,79.3,66.6,65,29.94,10.0,SE,10.4,-,N/A,,Clear,140,2013-07-13 05:35:00
12:55 AM,79.0,66.4,65,29.95,10.0,SE,11.5,-,N/A,,Clear,140,2013-07-13 05:55:00
1:15 AM,78.8,66.2,65,29.96,10.0,SE,11.5,16.1,N/A,,Clear,130,2013-07-13 06:15:00
1:35 AM,78.8,66.0,65,29.96,10.0,SE,10.4,-,N/A,,Clear,140,2013-07-13 06:35:00
1:55 AM,78.4,65.8,65,29.96,10.0,SE,10.4,-,N/A,,Clear,130,2013-07-13 06:55:00
2:15 AM,78.3,65.7,65,29.96,10.0,SE,9.2,16.1,N/A,,Clear,140,2013-07-13 07:15:00
2:35 AM,77.9,65.5,65,29.96,10.0,SE,10.4,-,N/A,,Clear,140,2013-07-13 07:35:00
2:55 AM,78.1,65.7,65,29.96,10.0,SE,10.4,16.1,N/A,,Clear,140,2013-07-13 07:55:00
3:15 AM,77.9,65.5,65,29.96,10.0,SE,10.4,17.3,N/A,,Clear,140,2013-07-13 08:15:00
3:35 AM,77.7,65.3,65,29.95,10.0,SSE,12.7,17.3,N/A,,Clear,150,2013-07-13 08:35:00
3:55 AM,77.4,64.8,65,29.95,10.0,SSE,10.4,-,N/A,,Clear,150,2013-07-13 08:55:00
4:15 AM,76.6,64.4,66,29.96,10.0,SE,11.5,-,N/A,,Clear,140,2013-07-13 09:15:00
4:35 AM,76.1,64.4,67,29.95,10.0,SE,10.4,-,N/A,,Clear,140,2013-07-13 09:35:00
4:55 AM,75.7,64.0,67,29.94,10.0,SSE,9.2,-,N/A,,Clear,150,2013-07-13 09:55:00
5:15 AM,75.2,64.0,68,29.94,10.0,SSE,9.2,16.1,N/A,,Clear,150,2013-07-13 10:15:00
5:35 AM,75.2,64.0,68,29.95,10.0,SE,10.4,16.1,N/A,,Scattered Clouds,140,2013-07-13 10:35:00
5:55 AM,74.8,64.4,70,29.95,10.0,SSE,9.2,-,N/A,,Mostly Cloudy,150,2013-07-13 10:55:00
6:15 AM,74.7,64.0,69,29.95,10.0,SE,11.5,-,N/A,,Clear,140,2013-07-13 11:15:00
6:35 AM,75.2,64.4,69,29.96,10.0,SE,9.2,17.3,N/A,,Clear,140,2013-07-13 11:35:00
6:55 AM,75.4,64.6,69,29.96,10.0,SSE,11.5,16.1,N/A,,Clear,150,2013-07-13 11:55:00
7:15 AM,76.1,64.9,68,29.96,10.0,SSE,10.4,-,N/A,,Clear,150,2013-07-13 12:15:00
7:35 AM,76.6,65.5,68,29.96,10.0,SSE,11.5,18.4,N/A,,Clear,150,2013-07-13 12:35:00
7:55 AM,77.4,66.2,68,29.95,10.0,SE,12.7,18.4,N/A,,Clear,140,2013-07-13 12:55:00
8:15 AM,77.2,66.4,69,29.96,10.0,SSE,11.5,-,N/A,,Scattered Clouds,150,2013-07-13 13:15:00
8:35 AM,77.4,66.6,69,29.96,10.0,SSE,11.5,-,N/A,,Clear,150,2013-07-13 13:35:00
8:55 AM,78.6,67.1,68,29.96,10.0,SSE,10.4,17.3,N/A,,Clear,150,2013-07-13 13:55:00
9:15 AM,79.7,67.6,66,29.96,10.0,SE,11.5,17.3,N/A,,Clear,140,2013-07-13 14:15:00
9:35 AM,79.3,67.3,66,29.97,10.0,SSE,12.7,-,N/A,,Clear,150,2013-07-13 14:35:00
9:55 AM,80.6,68.0,65,29.96,10.0,SSE,12.7,17.3,N/A,,Scattered Clouds,150,2013-07-13 14:55:00
10:15 AM,80.6,68.4,66,29.96,10.0,SE,11.5,16.1,N/A,,Clear,140,2013-07-13 15:15:00
10:35 AM,81.3,68.9,66,29.96,10.0,SSE,10.4,-,N/A,,Clear,160,2013-07-13 15:35:00
10:55 AM,83.1,69.4,63,29.96,10.0,South,11.5,-,N/A,,Clear,190,2013-07-13 15:55:00
11:15 AM,84.0,69.8,62,29.97,10.0,South,12.7,18.4,N/A,,Clear,170,2013-07-13 16:15:00
11:35 AM,85.3,70.3,61,29.96,10.0,South,10.4,16.1,N/A,,Clear,170,2013-07-13 16:35:00
11:55 AM,86.0,70.9,60,29.96,10.0,SSE,11.5,-,N/A,,Clear,160,2013-07-13 16:55:00
12:15 PM,87.4,71.4,59,29.96,10.0,SSE,10.4,18.4,N/A,,Clear,160,2013-07-13 17:15:00
12:35 PM,87.8,71.1,57,29.95,10.0,South,13.8,19.6,N/A,,Clear,170,2013-07-13 17:35:00
12:55 PM,88.7,70.9,55,29.94,10.0,SSE,13.8,21.9,N/A,,Clear,160,2013-07-13 17:55:00
1:15 PM,89.4,71.4,55,29.94,10.0,South,13.8,20.7,N/A,,Clear,170,2013-07-13 18:15:00
1:35 PM,90.3,71.6,54,29.94,10.0,SSE,11.5,18.4,N/A,,Clear,160,2013-07-13 18:35:00
1:55 PM,89.6,72.0,56,29.93,10.0,SSE,12.7,19.6,N/A,,Clear,150,2013-07-13 18:55:00
2:15 PM,91.0,71.6,53,29.93,10.0,SSE,18.4,23.0,N/A,,Clear,150,2013-07-13 19:15:00
2:35 PM,91.4,72.3,53,29.93,10.0,SE,13.8,19.6,N/A,,Clear,140,2013-07-13 19:35:00
2:55 PM,91.0,71.2,52,29.93,10.0,SE,17.3,21.9,N/A,,Clear,140,2013-07-13 19:55:00
3:15 PM,90.7,72.7,55,29.93,10.0,SE,15.0,19.6,N/A,,Clear,140,2013-07-13 20:15:00
3:35 PM,90.7,72.5,55,29.93,10.0,SE,13.8,18.4,N/A,,Clear,130,2013-07-13 20:35:00
3:55 PM,90.3,71.2,53,29.92,10.0,SE,15.0,-,N/A,,Clear,130,2013-07-13 20:55:00
4:15 PM,90.5,70.7,52,29.93,10.0,SE,17.3,23.0,N/A,,Clear,140,2013-07-13 21:15:00
4:35 PM,91.0,72.1,54,29.94,10.0,SE,16.1,20.7,N/A,,Clear,140,2013-07-13 21:35:00
4:55 PM,90.7,70.9,52,29.93,10.0,SSE,15.0,19.6,N/A,,Clear,150,2013-07-13 21:55:00
5:15 PM,90.1,71.8,55,29.94,10.0,SSE,10.4,-,N/A,,Clear,150,2013-07-13 22:15:00
5:35 PM,89.6,71.6,55,29.93,10.0,SE,13.8,17.3,N/A,,Clear,130,2013-07-13 22:35:00
5:55 PM,90.1,71.2,54,29.92,10.0,SE,13.8,20.7,N/A,,Clear,130,2013-07-13 22:55:00
6:15 PM,88.7,70.5,55,29.92,10.0,SE,16.1,-,N/A,,Clear,130,2013-07-13 23:15:00
6:35 PM,88.3,71.4,57,29.92,10.0,SE,15.0,-,N/A,,Clear,130,2013-07-13 23:35:00
6:55 PM,86.9,72.0,61,29.91,10.0,SE,13.8,20.7,N/A,,Clear,130,2013-07-13 23:55:00
7:15 PM,85.5,73.0,66,29.92,10.0,SE,15.0,-,N/A,,Clear,130,2013-07-14 00:15:00
7:35 PM,85.3,73.6,68,29.92,10.0,ESE,11.5,18.4,N/A,,Clear,120,2013-07-14 00:35:00
7:55 PM,85.1,73.6,68,29.92,10.0,SE,10.4,-,N/A,,Clear,130,2013-07-14 00:55:00
8:15 PM,84.2,72.9,69,29.92,10.0,SE,11.5,19.6,N/A,,Clear,130,2013-07-14 01:15:00
8:35 PM,83.7,72.7,69,29.93,10.0,SE,10.4,-,N/A,,Clear,130,2013-07-14 01:35:00
8:55 PM,82.9,73.0,72,29.93,10.0,SE,13.8,18.4,N/A,,Clear,130,2013-07-14 01:55:00
9:15 PM,82.4,72.7,72,29.93,10.0,SE,15.0,21.9,N/A,,Clear,130,2013-07-14 02:15:00
9:35 PM,82.0,72.9,74,29.93,10.0,ESE,13.8,18.4,N/A,,Clear,120,2013-07-14 02:35:00
9:55 PM,81.7,72.9,74,29.94,10.0,SE,18.4,23.0,N/A,,Clear,130,2013-07-14 02:55:00
10:15 PM,81.5,72.5,74,29.95,10.0,SE,16.1,21.9,N/A,,Clear,140,2013-07-14 03:15:00
10:35 PM,81.0,72.0,74,29.96,10.0,SE,16.1,23.0,N/A,,Clear,130,2013-07-14 03:35:00
10:55 PM,80.6,70.5,71,29.96,10.0,SE,13.8,25.3,N/A,,Clear,130,2013-07-14 03:55:00
11:15 PM,79.9,70.2,72,29.96,10.0,SE,12.7,21.9,N/A,,Clear,130,2013-07-14 04:15:00
11:35 PM,79.7,68.9,69,29.97,10.0,SE,13.8,21.9,N/A,,Clear,140,2013-07-14 04:35:00
11:55 PM,79.3,68.5,69,29.97,10.0,SE,11.5,19.6,N/A,,Clear,140,2013-07-14 04:55:00